This demonstration page uses our WeatherBlox Daily Observations layout. Learn more.

Left ArrowRight Arrow

39.51506, -84.39828

Hourly Observations for February 21, 2016

Temp ( °F °C ) Dew Point ( °F °C ) Humidity (%) Winds ( mph kmh ) Pressure ( in mb ) Visibility ( mi km ) Precip ( " mm )
12:15 am 00:15 Partly Cloudy 44 6.6 38 3.4 80 80 Calm 29.97 1015 10 16 0.00 0.00
12:35 am 00:35 Clear 43 6.2 38 3.2 81 81 Calm 29.97 1015 10 16 0.00 0.00
12:55 am 00:55 Clear 42 5.7 38 3.2 84 84 Calm 29.97 1015 10 16 0.00 0.00
1:15 am 01:15 Partly Cloudy 44 6.4 38 3.4 81 81 Calm 29.94 1014 10 16 0.00 0.00
1:35 am 01:35 Partly Cloudy 43 6.2 38 3.6 84 84 Calm 29.97 1015 10 16 0.00 0.00
1:55 am 01:55 Mostly Cloudy with Light Snow 47 8.1 42 5.4 83 83 N 7 11 29.94 1014 10 16 0.00 0.00
2:15 am 02:15 Cloudy with Light Snow 49 9.6 44 6.7 82 82 Calm 29.94 1014 5 8 0.00 0.00
2:35 am 02:35 Cloudy with Light Snow 49 9.6 45 7.3 86 86 Calm 29.94 1014 7 11 0.00 0.00
2:55 am 02:55 Mostly Cloudy with Light Snow 49 9.6 46 7.5 87 87 Calm 29.94 1014 3 5 0.00 0.00
3:15 am 03:15 Cloudy with Light Snow 49 9.6 46 7.7 88 88 NNE 3 6 29.94 1014 4 6 0.00 0.00
3:35 am 03:35 Cloudy with Light Snow 49 9.6 46 8 90 90 ENE 3 6 29.94 1014 3 4 0.00 0.00
3:55 am 03:55 Cloudy with Rain 49 9.6 46 8 90 90 N 6 9 29.94 1014 3 4 0.00 0.00
4:15 am 04:15 Cloudy with Rain 51 10.3 46 8 86 86 N 5 7 29.94 1014 7 11 0.00 0.00
4:35 am 04:35 Cloudy with Light Snow 49 9.6 45 7.3 86 86 N 5 7 29.94 1014 5 8 0.00 0.00
4:55 am 04:55 Cloudy with Rain 49 9.6 44 6.8 83 83 NNE 5 7 29.94 1014 7 11 0.00 0.00
5:15 am 05:15 Cloudy with Light Snow 49 9.6 45 7 84 84 NNE 6 9 29.94 1014 3 5 0.00 0.00
5:35 am 05:35 Cloudy with Light Snow 49 9.6 45 7 84 84 NNE 7 11 29.94 1014 4 6 0.00 0.00
5:55 am 05:55 Cloudy 49 9.6 44 6.7 82 82 NNE 7 11 29.94 1014 10 16 0.00 0.00
6:15 am 06:15 Cloudy 49 9.6 44 6.5 81 81 NNE 7 11 29.94 1014 10 16 0.00 0.00
6:35 am 06:35 Cloudy 49 9.6 42 5.6 76 76 N 8 13 29.94 1014 10 16 0.00 0.00
6:55 am 06:55 Cloudy 49 9.6 41 4.9 73 73 NNE 7 11 29.94 1014 10 16 0.00 0.00
7:15 am 07:15 Cloudy 49 9.6 40 4.7 72 72 NNE 7 11 29.94 1014 10 16 0.00 0.00
7:35 am 07:35 Cloudy 49 9.6 40 4.7 72 72 NNE 5 7 29.97 1015 10 16 0.00 0.00
7:55 am 07:55 Partly Cloudy 47 8.2 38 3.6 73 73 NNE 7 11 29.97 1015 10 16 0.00 0.00
8:15 am 08:15 Partly Cloudy 47 8.2 38 3.5 73 73 N 5 7 29.97 1015 10 16 0.00 0.00
8:35 am 08:35 Partly Cloudy 47 8.2 38 3.1 71 71 NNE 3 6 29.97 1015 10 16 0.00 0.00
8:55 am 08:55 Sunny 47 8.2 37 3 70 70 NNE 7 11 29.97 1015 10 16 0.00 0.00
9:15 am 09:15 Partly Cloudy 46 7.8 37 2.9 71 71 N 9 15 30.00 1016 10 16 0.00 0.00
9:35 am 09:35 Partly Cloudy 47 8.2 37 2.6 68 68 NNE 9 15 30.00 1016 10 16 0.00 0.00
9:55 am 09:55 Sunny 49 9.6 38 3.6 66 66 NNE 9 15 30.00 1016 10 16 0.00 0.00
10:15 am 10:15 Sunny 49 9.6 38 3.3 65 65 NE 6 9 30.00 1016 10 16 0.00 0.00
10:35 am 10:35 Partly Cloudy 52 11 37 2.9 58 58 NE 10 17 29.97 1015 10 16 0.00 0.00
10:55 am 10:55 Mostly Cloudy 55 12.5 38 3.5 55 55 NE 14 22 30.00 1016 10 16 0.00 0.00
11:15 am 11:15 Mostly Cloudy 55 12.5 38 3.2 53 53 ENE 9 15 30.00 1016 10 16 0.00 0.00
11:35 am 11:35 Partly Cloudy 55 12.5 36 2.3 50 50 ENE 8 13 29.97 1015 10 16 0.00 0.00
11:55 am 11:55 Sunny 55 12.5 36 2.2 50 50 NNE 9 15 29.97 1015 10 16 0.00 0.00
12:15 pm 12:15 Sunny 56 13.2 36 2.4 48 48 NNE 9 15 29.97 1015 10 16 0.00 0.00
12:35 pm 12:35 Partly Cloudy 57 13.8 37 2.6 47 47 NE 6 9 29.97 1015 10 16 0.00 0.00
12:55 pm 12:55 Mostly Cloudy 57 13.8 36 2.4 46 46 NE 6 9 29.97 1015 10 16 0.00 0.00
1:15 pm 13:15 Mostly Cloudy 57 14.1 36 2 44 44 ENE 8 13 29.94 1014 10 16 0.00 0.00
1:35 pm 13:35 Partly Cloudy 59 15.2 37 2.7 43 43 E 5 7 29.91 1013 10 16 0.00 0.00
1:55 pm 13:55 Sunny 60 15.3 36 2.2 41 41 E 6 9 29.91 1013 10 16 0.00 0.00
2:15 pm 14:15 Sunny 60 15.3 35 1.9 41 41 N 8 13 29.91 1013 10 16 0.00 0.00
2:35 pm 14:35 Sunny 60 15.3 34 1.2 39 39 N 6 9 29.91 1013 10 16 0.00 0.00
2:55 pm 14:55 Sunny 60 15.5 34 1.1 38 38 NNE 9 15 29.91 1013 10 16 0.00 0.00
3:15 pm 15:15 Sunny 60 15.3 34 1 38 38 NNW 9 15 29.94 1014 10 16 0.00 0.00
3:35 pm 15:35 Sunny 60 15.3 34 1.2 39 39 N 9 15 29.94 1014 10 16 0.00 0.00
3:55 pm 15:55 Sunny 60 15.3 34 1.1 38 38 N 9 15 29.94 1014 10 16 0.00 0.00
4:15 pm 16:15 Sunny 60 15.3 35 1.6 40 40 N 12 19 29.94 1014 10 16 0.00 0.00
4:35 pm 16:35 Sunny 57 13.8 34 1 42 42 NNW 12 19 29.97 1015 10 16 0.00 0.00
4:55 pm 16:55 Sunny 57 13.8 34 1.1 42 42 N 12 19 29.97 1015 10 16 0.00 0.00
5:15 pm 17:15 Sunny 57 13.8 35 1.4 43 43 N 8 13 29.97 1015 10 16 0.00 0.00
5:35 pm 17:35 Sunny 55 12.5 33 0.8 45 45 NNE 9 15 30.00 1016 10 16 0.00 0.00
5:55 pm 17:55 Sunny 55 12.5 34 1.1 46 46 NNE 9 15 30.00 1016 10 16 0.00 0.00
6:15 pm 18:15 Sunny 55 12.5 35 1.6 48 48 N 7 11 30.00 1016 10 16 0.00 0.00
6:35 pm 18:35 Clear 52 11 34 1.2 51 51 N 6 9 30.03 1017 10 16 0.00 0.00
6:55 pm 18:55 Clear 50 10.1 34 0.9 53 53 N 7 11 30.03 1017 10 16 0.00 0.00
7:15 pm 19:15 Clear 49 9.6 34 0.9 55 55 N 9 15 30.03 1017 10 16 0.00 0.00
7:35 pm 19:35 Clear 49 9.6 35 1.5 57 57 NNE 12 19 30.06 1018 10 16 0.00 0.00
7:55 pm 19:55 Clear 49 9.6 36 2 59 59 N 8 13 30.06 1018 10 16 0.00 0.00
8:15 pm 20:15 Clear 49 9.6 37 2.5 62 62 N 10 17 30.06 1018 10 16 0.00 0.00
8:35 pm 20:35 Clear 47 8.2 35 1.5 63 63 N 7 11 30.06 1018 10 16 0.00 0.00
8:55 pm 20:55 Clear 47 8.2 36 2 65 65 NNE 8 13 30.09 1019 10 16 0.00 0.00
9:15 pm 21:15 Clear 44 6.8 33 0.7 65 65 NNE 8 13 30.09 1019 10 16 0.00 0.00
9:35 pm 21:35 Clear 44 6.4 33 0.7 67 67 NNE 8 13 30.09 1019 10 16 0.00 0.00
9:55 pm 21:55 Clear 43 6 33 0.6 69 69 NNE 8 13 30.09 1019 10 16 0.00 0.00
10:15 pm 22:15 Clear 42 5.6 33 0.7 71 71 NNE 10 17 30.12 1020 10 16 0.00 0.00
10:35 pm 22:35 Clear 42 5.5 33 0.8 72 72 NNE 10 17 30.12 1020 10 16 0.00 0.00
10:55 pm 22:55 Clear 40 4.7 33 0.5 74 74 NNE 9 15 30.12 1020 10 16 0.00 0.00
11:15 pm 23:15 Clear 40 4.7 33 0.8 76 76 NNE 7 11 30.12 1020 10 16 0.00 0.00
11:35 pm 23:35 Clear 39 4 33 0.5 78 78 NNE 7 11 30.15 1021 10 16 0.00 0.00
11:55 pm 23:55 Clear 39 4 33 0.5 78 78 NNE 7 11 30.15 1021 10 16 0.00 0.00

Powered by AerisWeather